[[{"header":{"parameterUnit":"m.s-1","parameterCategory":1,"la1":30.2991,"la2":30.254,"lo1":-89.0895,"lo2":-89.0444,"dy":0.0017,"dx":0.0017,"nx":28,"ny":28,"refTime":"2024-10-09T09:00:00:Z","depth":0,"parameterNumber":2,"parameterNumberName":"U-component_of_WINDS"},"data":[0,0,0,0,0,0,0,0,0,0,0,0,0,0,0,0,0,0,0,0,0,0,0,0,0,0,0,0,0,0,0,0,0,0,0,0,0,0,0,0,0,0,0,0,0,0,0,0,0,0,0,0,0,0,0,0,0,0,-1.105,-1.1051,0,-1.116,-1.1161,-1.1163,-1.1146,-1.1144,-1.1142,-1.1141,-1.1257,-1.1262,-1.1267,0,0,0,0,0,0,0,0,0,0,0,0,0,-1.0828,-1.0832,-1.105,-1.1051,-1.1052,-1.116,-1.1162,-1.1163,-1.1146,-1.1144,-1.1142,-1.114,-1.1256,-1.1261,-1.1267,0,0,0,0,0,0,0,0,0,0,0,0,0,-1.093,-1.0833,-1.1049,-1.1057,-1.1059,-1.116,-1.1162,-1.1163,-1.1147,-1.1144,-1.1141,-1.1139,-1.1254,-1.1261,-1.1268,-1.137,0,0,-1.129,-1.1294,0,0,0,0,0,0,0,0,-1.0924,-1.0938,-1.1054,-1.1057,-1.1059,-1.1136,-1.1126,-1.1233,-1.1148,-1.1114,-1.114,-1.1137,-1.122,-1.123,-1.1257,-1.1375,-1.138,-1.1291,-1.1296,-1.1299,-1.1301,0,0,0,0,0,0,0,-1.0917,-1.0933,-1.1093,-1.1056,-1.1059,-1.1056,-1.1067,-1.1146,-1.1181,-1.1116,-1.1115,-1.1128,-1.122,-1.125,-1.1259,-1.1382,-1.1291,-1.1297,-1.1302,-1.1305,-1.1591,-1.1594,0,0,0,0,0,0,-1.0907,-1.0927,-1.109,-1.1097,-1.0983,-1.1062,-1.1075,-1.1114,-1.118,-1.1188,-1.1131,-1.1127,-1.1239,-1.1251,-1.1263,-1.1388,-1.1299,-1.1305,-1.131,-1.1588,-1.1592,-1.1595,0,0,0,0,0,0,-1.0902,-1.0922,-1.1086,-1.1012,-1.1032,-1.1069,-1.1113,-1.1118,-1.1147,-1.1191,-1.1198,-1.1154,-1.1237,-1.1253,-1.1344,-1.1392,-1.1309,-1.1315,-1.1584,-1.1589,-1.1593,-1.1638,0,0,0,0,0,0,-1.0896,-1.092,-1.0959,-1.1013,-1.1036,-1.1163,-1.1116,-1.1122,-1.116,-1.1156,-1.1215,-1.1222,-1.1236,-1.1333,-1.1351,-1.1401,-1.1321,-1.158,-1.1586,-1.1592,-1.1632,-1.1644,-1.1653,0,0,0,0,0,-1.0888,-1.0967,-1.0961,-1.098,-1.1085,-1.1166,-1.118,-1.1193,-1.1163,-1.1203,-1.1231,-1.122,-1.1383,-1.1342,-1.1362,-1.1415,-1.1577,-1.1584,-1.1591,-1.1628,-1.1641,-1.1653,0,0,0,0,0,0,-1.0919,-1.0974,-1.0968,-1.1066,-1.1111,-1.1163,-1.1213,-1.1207,-1.1262,-1.1257,-1.1272,-1.1286,-1.1378,-1.1405,-1.1358,-1.1517,-1.1476,-1.1488,-1.1497,-1.151,-1.152,-1.1513,-1.1327,0,0,0,0,0,-1.0937,-1.0997,-1.1042,-1.1125,-1.1148,-1.1176,-1.1212,-1.1219,-1.1266,-1.1286,-1.1321,-1.1369,-1.1431,-1.1471,-1.1531,-1.1635,-1.1649,-1.1681,-1.1692,-1.17,-1.1711,-1.177,-1.1786,-1.1619,-1.1619,-1.1619,0,0,-1.0975,-1.1013,-1.105,-1.1132,-1.1168,-1.1231,-1.1193,-1.1261,-1.1309,-1.1297,-1.1385,-1.1412,-1.1466,-1.1564,-1.1609,-1.159,-1.176,-1.171,-1.1716,-1.1722,-1.1779,-1.1795,-1.1809,-1.1624,-1.1623,-1.1622,0,0,-1.1078,-1.1111,-1.1185,-1.1221,-1.1275,-1.1293,-1.1311,-1.1363,-1.1381,-1.1469,-1.1461,-1.1518,-1.1624,-1.1664,-1.1698,-1.1815,-1.1808,-1.1834,-1.189,-1.1948,-1.1961,-1.1973,-1.2017,-1.2032,-1.1844,-1.1844,-1.1844,0,-1.1119,-1.1213,-1.1223,-1.1293,-1.133,-1.132,-1.1395,-1.143,-1.1502,-1.1528,-1.1504,-1.1638,-1.1674,-1.1782,-1.1811,-1.1838,-1.186,-1.1829,-1.1958,-1.197,-1.1981,-1.2023,-1.2039,-1.1847,-1.1847,-1.1847,-1.1846,0,-1.1262,-1.1328,-1.138,-1.1449,-1.1491,-1.1563,-1.1586,-1.1628,-1.163,-1.1651,-1.1742,-1.1784,-1.1853,-1.1878,-1.1881,-1.1987,-1.1974,-1.1954,-1.1913,-1.2,-1.204,-1.2056,-1.1852,-1.185,-1.185,-1.1849,0,0,-1.139,-1.1462,-1.1481,-1.1513,-1.1571,-1.1623,-1.1694,-1.176,-1.1797,-1.1846,-1.1908,-1.1998,-1.198,-1.2018,-1.2026,-1.2076,-1.2168,-1.205,-1.2051,-1.2073,-1.229,-1.2307,-1.2325,-1.2162,-1.2166,-1.2168,-1.2287,0,-1.15,-1.1626,-1.1637,-1.1751,-1.1813,-1.1804,-1.1866,-1.191,-1.1931,-1.1988,-1.2011,-1.2076,-1.2046,-1.207,-1.2118,-1.2147,-1.2213,-1.2138,-1.2223,-1.2226,-1.2212,-1.2346,-1.2364,-1.2474,-1.2302,-1.2305,-1.2307,0,-1.1646,-1.1699,-1.1818,-1.1869,-1.1895,-1.1952,-1.2013,-1.2066,-1.2116,-1.2128,-1.2171,-1.2171,-1.2247,-1.2201,-1.2306,-1.2255,-1.229,-1.2309,-1.2314,-1.2325,-1.2273,-1.2363,-1.2509,-1.2527,-1.2331,-1.2329,-1.2327,0,-1.173,-1.183,-1.1916,-1.1942,-1.2003,-1.2043,-1.207,-1.2116,-1.2156,-1.221,-1.2236,-1.2298,-1.2333,-1.2381,-1.2399,-1.2364,-1.2505,-1.246,-1.2519,-1.2519,-1.2552,-1.255,-1.2708,-1.2569,-1.2569,-1.2569,-1.2568,0,-1.1853,-1.1928,-1.1954,-1.2007,-1.209,-1.2102,-1.2185,-1.221,-1.2251,-1.231,-1.2305,-1.2361,-1.2379,-1.2438,-1.2453,-1.2539,-1.2554,-1.2568,-1.2571,-1.257,-1.2568,-1.2595,-1.2589,-1.2573,-1.2572,-1.2571,-1.2571,0,-1.1962,-1.1983,-1.2075,-1.2125,-1.2139,-1.2198,-1.2241,-1.2293,-1.2312,-1.2387,-1.2405,-1.2437,-1.2506,-1.2528,-1.2611,-1.2621,-1.2722,-1.2718,-1.2706,-1.2707,-1.2766,-1.2761,-1.2949,-1.2975,-1.2817,-1.2818,-1.282,0,-1.2041,-1.2098,-1.2153,-1.2192,-1.222,-1.2282,-1.2322,-1.2335,-1.2377,-1.2438,-1.2483,-1.255,-1.2606,-1.2717,-1.2748,-1.2812,-1.2811,-1.2872,-1.2821,-1.2818,-1.2815,-1.2813,-1.282,-1.2883,-1.2885,-1.2886,-1.2887,0,-1.218,-1.2187,-1.2244,-1.2305,-1.2352,-1.2401,-1.2448,-1.248,-1.25,-1.2548,-1.2618,-1.266,-1.2745,-1.2814,-1.2879,-1.2908,-1.2903,-1.2902,-1.292,-1.2921,-1.2913,-1.2921,-1.2735,-1.2899,-1.2898,-1.2897,-1.2896,-1.2896,-1.2279,-1.2329,-1.2376,-1.244,-1.2476,-1.252,-1.2571,-1.2597,-1.2655,-1.2725,-1.2729,-1.2806,-1.2854,-1.2941,-1.2973,-1.3034,-1.3017,-1.3042,-1.3049,-1.3055,-1.3061,-1.29,-1.3046,-1.3046,-1.3045,-1.3045,-1.3045,0,-1.242,-1.2449,-1.2507,-1.2573,-1.2623,-1.261,-1.2662,-1.2706,-1.2772,-1.2817,-1.2872,-1.2953,-1.3019,-1.3055,-1.3121,-1.3163,-1.3162,-1.3181,-1.3179,-1.3187,-1.3072,-1.3051,-1.318,-1.318,-1.318,-1.318,-1.318,-1.318,-1.2499,-1.2585,-1.2597,-1.2702,-1.2731,-1.2805,-1.2835,-1.2876,-1.2913,-1.3003,-1.3058,-1.308,-1.3122,-1.3191,-1.3252,-1.3261,-1.3287,-1.3308,-1.3315,-1.3208,-1.3194,-1.3181,-1.3162,-1.3312,-1.3313,-1.3425,-1.3426,-1.3427]},{"header":{"parameterUnit":"m.s-1","parameterCategory":1,"la1":30.2991,"la2":30.254,"lo1":-89.0895,"lo2":-89.0444,"dy":0.0017,"dx":0.0017,"nx":28,"ny":28,"refTime":"2024-10-09T09:00:00:Z","depth":0,"parameterNumber":3,"parameterNumberName":"V-component_of_WINDS"},"data":[0,0,0,0,0,0,0,0,0,0,0,0,0,0,0,0,0,0,0,0,0,0,0,0,0,0,0,0,0,0,0,0,0,0,0,0,0,0,0,0,0,0,0,0,0,0,0,0,0,0,0,0,0,0,0,0,0,0,-4.5493,-4.5494,0,-4.5539,-4.554,-4.554,-4.5457,-4.5455,-4.5452,-4.5449,-4.5493,-4.5497,-4.55,0,0,0,0,0,0,0,0,0,0,0,0,0,-4.5329,-4.5333,-4.5493,-4.5494,-4.5494,-4.5539,-4.554,-4.554,-4.5458,-4.5455,-4.5451,-4.5448,-4.5492,-4.5496,-4.5501,0,0,0,0,0,0,0,0,0,0,0,0,0,-4.539,-4.5334,-4.5493,-4.5459,-4.5456,-4.5539,-4.554,-4.554,-4.5459,-4.5455,-4.545,-4.5447,-4.549,-4.5496,-4.5501,-4.5619,0,0,-4.5518,-4.5521,0,0,0,0,0,0,0,0,-4.5387,-4.5397,-4.5463,-4.5461,-4.5458,-4.5488,-4.5498,-4.5567,-4.546,-4.5458,-4.5449,-4.5444,-4.5495,-4.55,-4.5517,-4.5621,-4.5623,-4.5519,-4.5522,-4.5525,-4.5526,0,0,0,0,0,0,0,-4.5383,-4.5394,-4.5511,-4.5464,-4.5461,-4.5439,-4.5444,-4.5511,-4.5499,-4.5457,-4.5452,-4.5458,-4.5492,-4.5512,-4.5518,-4.5623,-4.5519,-4.5524,-4.5527,-4.5529,-4.5825,-4.5829,0,0,0,0,0,0,-4.5384,-4.5391,-4.551,-4.5512,-4.5412,-4.5446,-4.545,-4.5483,-4.5498,-4.5496,-4.5462,-4.5454,-4.5504,-4.5511,-4.5519,-4.5657,-4.5525,-4.553,-4.5533,-4.582,-4.5826,-4.583,0,0,0,0,0,0,-4.538,-4.5395,-4.5508,-4.545,-4.5463,-4.5453,-4.549,-4.5486,-4.5505,-4.5501,-4.5498,-4.5484,-4.5501,-4.5511,-4.5595,-4.5658,-4.5532,-4.5537,-4.5815,-4.5822,-4.5828,-4.5935,0,0,0,0,0,0,-4.5376,-4.5394,-4.544,-4.5452,-4.5466,-4.5585,-4.5494,-4.549,-4.5516,-4.5506,-4.5521,-4.552,-4.5499,-4.5587,-4.56,-4.5663,-4.5542,-4.5809,-4.5818,-4.5826,-4.5926,-4.5945,-4.5961,0,0,0,0,0,-4.5371,-4.5468,-4.5443,-4.5457,-4.5523,-4.5588,-4.5596,-4.5571,-4.5521,-4.5566,-4.5563,-4.5519,-4.5648,-4.5596,-4.561,-4.5676,-4.5805,-4.5816,-4.5825,-4.5918,-4.5941,-4.5961,0,0,0,0,0,0,-4.5462,-4.5468,-4.5441,-4.5545,-4.5567,-4.5574,-4.563,-4.5596,-4.5632,-4.5622,-4.5588,-4.5592,-4.5682,-4.5687,-4.5629,-4.579,-4.5718,-4.5732,-4.5784,-4.5806,-4.5823,-4.582,-4.5547,0,0,0,0,0,-4.5494,-4.5548,-4.555,-4.5642,-4.5654,-4.5641,-4.5668,-4.5647,-4.5668,-4.5676,-4.5679,-4.57,-4.5745,-4.5775,-4.5816,-4.5926,-4.5928,-4.5978,-4.5995,-4.601,-4.6022,-4.608,-4.6102,-4.5864,-4.5864,-4.5863,0,0,-4.5561,-4.5572,-4.5607,-4.566,-4.5675,-4.573,-4.5649,-4.571,-4.575,-4.5685,-4.5765,-4.5768,-4.5788,-4.5886,-4.5928,-4.5892,-4.6088,-4.6023,-4.6034,-4.6039,-4.6093,-4.6115,-4.6135,-4.5871,-4.5869,-4.5868,0,0,-4.5712,-4.5726,-4.5804,-4.582,-4.5843,-4.5833,-4.5852,-4.5865,-4.5865,-4.5944,-4.5896,-4.5942,-4.6021,-4.6038,-4.6057,-4.6213,-4.6174,-4.6228,-4.6319,-4.6376,-4.6395,-4.6411,-4.6467,-4.6488,-4.624,-4.624,-4.624,0,-4.5793,-4.5875,-4.5847,-4.5913,-4.5937,-4.5881,-4.5959,-4.5976,-4.6011,-4.6028,-4.5987,-4.6085,-4.6095,-4.6195,-4.6234,-4.6251,-4.627,-4.6226,-4.6394,-4.6411,-4.6426,-4.6479,-4.65,-4.6246,-4.6246,-4.6245,-4.6244,0,-4.5973,-4.603,-4.609,-4.6127,-4.6158,-4.6229,-4.6211,-4.6245,-4.6221,-4.6216,-4.6297,-4.6307,-4.6349,-4.6371,-4.6348,-4.6468,-4.6445,-4.64,-4.6327,-4.6455,-4.6505,-4.6525,-4.6255,-4.6253,-4.6251,-4.625,0,0,-4.6183,-4.6204,-4.6226,-4.6242,-4.6264,-4.6307,-4.6375,-4.6418,-4.6448,-4.6473,-4.6529,-4.6597,-4.6555,-4.6576,-4.6554,-4.6604,-4.6728,-4.6553,-4.6553,-4.6585,-4.6861,-4.6896,-4.692,-4.6702,-4.6706,-4.6709,-4.6859,0,-4.6333,-4.6452,-4.6429,-4.6545,-4.6598,-4.6545,-4.6604,-4.6623,-4.6619,-4.6662,-4.6657,-4.6706,-4.6647,-4.666,-4.6707,-4.6703,-4.6783,-4.6692,-4.6753,-4.6755,-4.675,-4.6945,-4.6982,-4.7124,-4.6878,-4.6882,-4.6884,0,-4.6524,-4.6559,-4.6681,-4.6694,-4.6715,-4.6769,-4.6806,-4.6848,-4.6867,-4.6861,-4.6885,-4.6854,-4.692,-4.6846,-4.6936,-4.6875,-4.6898,-4.69,-4.6905,-4.691,-4.6828,-4.6956,-4.7169,-4.719,-4.6914,-4.6912,-4.691,0,-4.6666,-4.6743,-4.6826,-4.6841,-4.6858,-4.6897,-4.6906,-4.6921,-4.6948,-4.698,-4.6997,-4.7036,-4.7057,-4.7087,-4.7066,-4.7014,-4.716,-4.7084,-4.7156,-4.7156,-4.7189,-4.7188,-4.7409,-4.7204,-4.7203,-4.7203,-4.7203,0,-4.6837,-4.6913,-4.689,-4.6941,-4.7024,-4.6996,-4.7079,-4.7081,-4.7096,-4.7145,-4.7101,-4.7148,-4.7117,-4.7162,-4.7145,-4.7223,-4.7232,-4.7228,-4.7223,-4.7233,-4.7234,-4.7248,-4.7238,-4.7209,-4.7207,-4.7206,-4.7205,0,-4.701,-4.6997,-4.7084,-4.7093,-4.7097,-4.7159,-4.7166,-4.7212,-4.7205,-4.7268,-4.7281,-4.727,-4.7319,-4.7301,-4.7354,-4.7343,-4.7442,-4.7423,-4.7436,-4.7431,-4.7504,-4.7498,-4.7743,-4.7774,-4.7548,-4.7551,-4.7552,0,-4.712,-4.7178,-4.7194,-4.7224,-4.7237,-4.7286,-4.7314,-4.7288,-4.7318,-4.7345,-4.7388,-4.7434,-4.747,-4.7551,-4.7547,-4.7587,-4.7569,-4.7652,-4.7575,-4.7583,-4.7571,-4.7568,-4.7573,-4.7668,-4.7671,-4.7673,-4.7675,0,-4.7317,-4.7307,-4.735,-4.739,-4.7425,-4.7455,-4.7481,-4.7508,-4.7483,-4.7519,-4.757,-4.7598,-4.7652,-4.7698,-4.7734,-4.7741,-4.7704,-4.7699,-4.7718,-4.7728,-4.7734,-4.7732,-4.7479,-4.7694,-4.7692,-4.769,-4.7689,-4.7688,-4.7461,-4.7511,-4.753,-4.7578,-4.7595,-4.7621,-4.7665,-4.7664,-4.7706,-4.775,-4.7731,-4.779,-4.7807,-4.7851,-4.7863,-4.7908,-4.7875,-4.7903,-4.791,-4.7917,-4.7927,-4.7726,-4.7914,-4.7914,-4.7913,-4.7913,-4.7912,0,-4.7656,-4.7666,-4.7711,-4.775,-4.7788,-4.775,-4.7777,-4.7811,-4.7864,-4.7883,-4.792,-4.7978,-4.8022,-4.8021,-4.8062,-4.8098,-4.8082,-4.811,-4.8107,-4.8109,-4.7953,-4.7933,-4.8122,-4.8122,-4.8122,-4.8122,-4.8122,-4.8122,-4.7762,-4.7844,-4.7837,-4.7925,-4.7934,-4.7992,-4.8011,-4.8033,-4.8049,-4.8117,-4.8154,-4.8153,-4.8165,-4.8206,-4.8244,-4.8243,-4.826,-4.8294,-4.8286,-4.8141,-4.812,-4.81,-4.8081,-4.8298,-4.8298,-4.8438,-4.844,-4.8441]}]]